Погода в Торре дель Маре

Испания     36˚44′42″N   4˚05′13″W
темп.,
°C
ветер,
м/с
пор.,
м/с
влажн.,
%
обл.,
%
осадки,
мм/ч
давл.,
гПа
погр.,
м
17 января, вс
вс1701:00+8˚с22759 0.0 103042
04:00+8˚с11590 0.0 102933
07:00+8˚с12510 0.0 102932
10:00+11˚ссв11460 0.0 102937
13:00+15˚ююз21390 0.0 1028282
16:00+15˚юз33490 0.0 1026309
19:00+11˚зсз226135 0.0 102660
22:00+11˚з1259100 0.0 102669
18 января, пн
пн1801:00+10˚сз1164100 0.0 102760
04:00+11˚с1241100 0.0 102629
07:00+10˚св114685 0.0 102638
10:00+13˚с01520 0.0 102744
13:00+15˚ююв22460 0.0 1027386
16:00+15˚юв23480 0.0 1025448
19:00+11˚всв12680 0.0 102637
22:00+10˚св11710 0.0 102741
19 января, вт
вт1901:00+10˚св227016 0.0 102769
04:00+9˚ссв226326 0.0 102635
07:00+9˚св226213 0.0 102541
10:00+11˚с115954 0.0 102554
13:00+14˚юз225064 0.0 1025373
16:00+14˚юз2255100 0.0 1022366
19:00+10˚сз126964 0.0 102262
22:00+9˚сз116799 0.0 102294
20 января, ср
ср2001:00+9˚с126894 0.0 102140
04:00+10˚ссз126371 0.0 101931
07:00+9˚ссз236477 0.0 1018183
10:00+11˚сз2567100 0.0 1017359
13:00+12˚зюз51078100 0.1 10151030
16:00+11˚зюз51097100 8.7 1014653
19:00+11˚ссз239188 10.0 101545
22:00+10˚сз33780 0.1 101753
21 января, чт
чт2101:00+10˚сз46790 0.1 1018143
04:00+10˚ссз33790 0.0 101957
07:00+10˚ссз33770 0.0 102047
10:00+12˚сз23730 0.0 1021112
13:00+15˚зюз35648 0.0 1020766
16:00+15˚зюз667640 0.3 1019704
19:00+13˚з468629 0.3 1020101
22:00+11˚зсз35843 0.0 102192